This is the latest recevied weather packets stored in our database for station/object KB1JL-13. If no packets are shown the sender has not sent any weather packets the latest 1 day(s).
| Time | Temp. | Humidity | Pressure | Rain* | Wind** | Luminosity | Snow |
|---|---|---|---|---|---|---|---|
| 1777991760 | 18.33° C | 72% | 1022.6 hPa | 0 mm | 0 m/s | 649 W/m² | - |
| 1777991457 | 18.33° C | 74% | 1022.6 hPa | 0 mm | 0 m/s | 640 W/m² | - |
| 1777991154 | 17.78° C | 74% | 1022.6 hPa | 0 mm | 0.45 m/s, 165° | 651 W/m² | - |
| 1777990851 | 18.33° C | 76% | 1022.6 hPa | 0 mm | 0.45 m/s, 213° | 661 W/m² | - |
| 1777990548 | 18.33° C | 74% | 1022.6 hPa | 0 mm | 0 m/s | 648 W/m² | - |
| 1777990245 | 17.78° C | 74% | 1022.6 hPa | 0 mm | 0 m/s | 642 W/m² | - |
| 1777989942 | 17.22° C | 76% | 1023 hPa | 0 mm | 0.45 m/s, 176° | 632 W/m² | - |
| 1777989639 | 17.22° C | 76% | 1022.6 hPa | 0 mm | 3.58 m/s, 192° | 618 W/m² | - |
| 1777989335 | 17.78° C | 76% | 1022.6 hPa | 0 mm | 0.89 m/s, 215° | 603 W/m² | - |
| 1777989031 | 17.78° C | 75% | 1022.6 hPa | 0 mm | 1.79 m/s, 174° | 616 W/m² | - |
| 1777988727 | 17.22° C | 78% | 1022.2 hPa | 0 mm | 0 m/s | 707 W/m² | - |
| 1777988425 | 16.67° C | 80% | 1022.6 hPa | 0 mm | 0.45 m/s, 209° | 582 W/m² | - |
| 1777988122 | 16.67° C | 81% | 1022.2 hPa | 0 mm | 0.45 m/s, 200° | 342 W/m² | - |
| 1777987817 | 15.56° C | 84% | 1022.2 hPa | 0 mm | 0 m/s | 633 W/m² | - |
| 1777987514 | 15.56° C | 84% | 1022.2 hPa | 0 mm | 0 m/s | 487 W/m² | - |
| 1777987212 | 15° C | 86% | 1022.6 hPa | 0 mm | 0 m/s | 278 W/m² | - |
| 1777986908 | 15° C | 86% | 1022.2 hPa | 0 mm | 0 m/s | 148 W/m² | - |
| 1777986607 | 15° C | 86% | 1022.6 hPa | 0 mm | 0.89 m/s, 199° | 211 W/m² | - |
| 1777986304 | 15° C | 87% | 1022.2 hPa | 0 mm | 0 m/s | 273 W/m² | - |
| 1777986003 | 14.44° C | 88% | 1022.6 hPa | 0 mm | 0 m/s | 183 W/m² | - |
| 1777985699 | 14.44° C | 89% | 1022.6 hPa | 0 mm | 0 m/s | 118 W/m² | - |
| 1777985395 | 14.44° C | 88% | 1022.6 hPa | 0 mm | 0 m/s | 131 W/m² | - |
| 1777985092 | 14.44° C | 88% | 1023 hPa | 0 mm | 0 m/s | 126 W/m² | - |
| 1777984788 | 14.44° C | 88% | 1022.6 hPa | 0 mm | 0 m/s | 138 W/m² | - |
| 1777984485 | 14.44° C | 88% | 1023 hPa | 0 mm | 0 m/s | 157 W/m² | - |
* Rain latest hour (hover to see other rain measurements)
** Current wind speed in m/s (hover to see current wind gust speed)